TimeCDT,TemperatureF,Dew PointF,Humidity,Sea Level PressureIn,VisibilityMPH,Wind Direction,Wind SpeedMPH,Gust SpeedMPH,PrecipitationIn,Events,Conditions,WindDirDegrees,DateUTC
12:55 AM,63.0,60.1,90,30.16,10.0,Calm,Calm,-,N/A,,Clear,0,2013-07-02 05:55:00
1:55 AM,61.0,59.0,93,30.16,10.0,NW,3.5,-,N/A,,Clear,310,2013-07-02 06:55:00
2:55 AM,59.0,57.0,93,30.16,9.0,NW,6.9,-,N/A,,Clear,320,2013-07-02 07:55:00
3:55 AM,60.1,57.9,93,30.16,9.0,NW,3.5,-,N/A,,Mostly Cloudy,310,2013-07-02 08:55:00
4:55 AM,60.1,57.9,93,30.16,8.0,Calm,Calm,-,N/A,,Mostly Cloudy,0,2013-07-02 09:55:00
5:55 AM,59.0,57.9,96,30.16,7.0,WNW,4.6,-,N/A,,Mostly Cloudy,300,2013-07-02 10:55:00
6:55 AM,57.9,57.0,97,30.17,5.0,NW,4.6,-,N/A,,Clear,310,2013-07-02 11:55:00
7:55 AM,61.0,59.0,93,30.17,4.0,WNW,3.5,-,N/A,,Scattered Clouds,290,2013-07-02 12:55:00
9:55 AM,75.9,59.0,56,30.16,10.0,Calm,Calm,-,N/A,,Clear,0,2013-07-02 14:55:00
10:55 AM,80.1,61.0,52,30.15,9.0,Calm,Calm,-,N/A,,Clear,0,2013-07-02 15:55:00
11:55 AM,82.9,54.0,37,30.14,10.0,Calm,Calm,-,N/A,,Clear,0,2013-07-02 16:55:00
12:55 PM,84.0,46.0,26,30.14,10.0,Calm,Calm,-,N/A,,Clear,0,2013-07-02 17:55:00
1:55 PM,84.0,50.0,31,30.12,10.0,Variable,5.8,-,N/A,,Partly Cloudy,0,2013-07-02 18:55:00
2:55 PM,84.0,50.0,31,30.11,10.0,Calm,Calm,-,N/A,,Partly Cloudy,0,2013-07-02 19:55:00
3:55 PM,84.9,53.1,33,30.09,10.0,NW,4.6,-,N/A,,Clear,320,2013-07-02 20:55:00
4:55 PM,84.0,53.1,34,30.08,10.0,NNW,5.8,-,N/A,,Partly Cloudy,330,2013-07-02 21:55:00
5:55 PM,81.0,54.0,39,30.07,10.0,NNW,5.8,-,N/A,,Partly Cloudy,330,2013-07-02 22:55:00
6:55 PM,82.9,55.9,39,30.06,10.0,WNW,3.5,-,N/A,,Clear,290,2013-07-02 23:55:00
7:55 PM,82.0,59.0,45,30.05,10.0,Calm,Calm,-,N/A,,Clear,0,2013-07-03 00:55:00
8:55 PM,75.9,57.9,54,30.04,10.0,Calm,Calm,-,N/A,,Clear,0,2013-07-03 01:55:00
9:55 PM,69.1,55.0,61,30.05,10.0,Calm,Calm,-,N/A,,Clear,0,2013-07-03 02:55:00
10:55 PM,66.0,60.1,81,30.06,8.0,Calm,Calm,-,N/A,,Clear,0,2013-07-03 03:55:00
11:55 PM,64.9,59.0,81,30.05,8.0,Calm,Calm,-,N/A,,Clear,0,2013-07-03 04:55:00